Location: Unspecified
(0.0000°N, 0.0000°E)
Time: 13:38:01
(UTC+02:00)

Cosmos 1953 Rocket - Visible Passes

Search period start: 19 April 2018 00:00
Search period end: 29 April 2018 00:00
Orbit: 604 x 635 km, 82.5° (Epoch: 19 April)

Date Brightness Start Highest point End Pass type
(mag) Time Alt. Az. Time Alt. Az. Time Alt. Az.
19 Apr 3.7 06:26:25 13° S 06:30:25 75° E 06:34:53 10° N visible
20 Apr 3.8 06:45:47 26° SW 06:47:56 45° W 06:52:13 10° NNW visible
21 Apr 6.3 05:27:33 16° E 05:27:52 16° E 05:30:34 10° ENE visible
21 Apr 4.8 07:04:48 20° W 07:05:27 20° W 07:08:45 10° NW visible
22 Apr 5.3 05:46:20 31° ENE 05:46:20 31° ENE 05:49:28 10° NNE visible
23 Apr 4.9 06:04:56 32° N 06:04:56 32° N 06:07:23 10° N visible
24 Apr 5.5 06:23:23 18° NNW 06:23:23 18° NNW 06:24:37 10° NNW visible
